Location: Unspecified
(47.2333°N, 39.7000°E)
Time: 06:18:41
(UTC+00:00)

ISS - Pass Details

Date: 07 March 2021
Orbit: 418 x 422 km, 51.6° (Epoch: 16 April)

Event Time Altitude Azimuth Distance (km) Brightness Sun altitude
Exits shadow 02:22:17 27° 308° (NW) 852 -2.6 -15.7°
Maximum altitude 02:23:55 59° 19° (NNE) 489 -3.3 -15.4°
Drops below altitude 10° 02:27:14 10° 100° (E) 1,497 0.2 -14.8°
Sets 02:29:21 0° 104° (ESE) 2,359 1.4 -14.5°
